| time (UTC) | temp C | wind direction | speed KPH | gust KPH | rain 1hr cm | rain 24hr cm | rain mn cm | humidity % | barometer mb |
| 20260507103435 | 21 | 90 | 16.1 | 20.9 | 0.00 | 0.00 | 0.00 | 72 | 1007.8 |
| 20260507103235 | 21 | 90 | 22.5 | 27.4 | 0.00 | 0.00 | 0.00 | 73 | 1008.8 |
| 20260507103035 | 21 | 112 | 19.3 | 22.5 | 0.00 | 0.00 | 0.00 | 70 | 1008.8 |
| 20260507102823 | 21 | 68 | 22.5 | 24.1 | 0.00 | 0.00 | 0.00 | 71 | 1008.8 |
| 20260507102623 | 21 | 90 | 22.5 | 25.7 | 0.00 | 0.00 | 0.00 | 71 | 1008.8 |
| 20260507102423 | 21 | 68 | 20.9 | 24.1 | 0.00 | 0.00 | 0.00 | 68 | 1008.8 |
| 20260507102211 | 21 | 112 | 11.3 | 12.9 | 0.00 | 0.00 | 0.00 | 71 | 1008.8 |
| 20260507102011 | 21 | 68 | 14.5 | 14.5 | 0.00 | 0.00 | 0.00 | 70 | 1008.8 |
| 20260507101810 | 21 | 68 | 12.9 | 14.5 | 0.00 | 0.00 | 0.00 | 70 | 1008.8 |
| 20260507101559 | 21 | 90 | 14.5 | 16.1 | 0.00 | 0.00 | 0.00 | 71 | 1008.8 |
| 20260507101359 | 21 | 68 | 14.5 | 16.1 | 0.00 | 0.00 | 0.00 | 70 | 1008.8 |
| 20260507101158 | 21 | 112 | 20.9 | 25.7 | 0.00 | 0.00 | 0.00 | 71 | 1008.8 |
| 20260507100947 | 21 | 68 | 16.1 | 16.1 | 0.00 | 0.00 | 0.00 | 70 | 1008.8 |
| 20260507100747 | 21 | 112 | 16.1 | 16.1 | 0.00 | 0.00 | 0.00 | 70 | 1008.8 |
| 20260507100547 | 21 | 135 | 17.7 | 19.3 | 0.00 | 0.00 | 0.00 | 71 | 1008.8 |
| 20260507100335 | 21 | 90 | 14.5 | 16.1 | 0.00 | 0.00 | 0.00 | 71 | 1008.8 |
| 20260507100134 | 21 | 45 | 27.4 | 29.0 | 0.00 | 0.00 | 0.00 | 71 | 1008.8 |
| 20260507095935 | 21 | 68 | 24.1 | 27.4 | 0.00 | 0.00 | 0.00 | 71 | 1008.8 |
| 20260507095723 | 21 | 45 | 14.5 | 17.7 | 0.00 | 0.00 | 0.00 | 71 | 1008.8 |
| 20260507095522 | 21 | 90 | 20.9 | 24.1 | 0.00 | 0.00 | 0.00 | 69 | 1008.8 |
| 20260507095323 | 21 | 68 | 20.9 | 24.1 | 0.00 | 0.00 | 0.00 | 71 | 1008.8 |
| 20260507095111 | 21 | 90 | 22.5 | 27.4 | 0.00 | 0.00 | 0.00 | 70 | 1008.8 |
| 20260507094910 | 21 | 68 | 29.0 | 30.6 | 0.00 | 0.00 | 0.00 | 69 | 1008.8 |
| 20260507094711 | 21 | 68 | 11.3 | 12.9 | 0.00 | 0.00 | 0.00 | 72 | 1008.8 |
| 20260507094459 | 21 | 68 | 16.1 | 17.7 | 0.00 | 0.00 | 0.00 | 70 | 1008.8 |
| 20260507094258 | 21 | 112 | 14.5 | 16.1 | 0.00 | 0.00 | 0.00 | 72 | 1008.8 |
| 20260507094058 | 21 | 90 | 19.3 | 24.1 | 0.00 | 0.00 | 0.00 | 71 | 1008.8 |
| 20260507093847 | 21 | 90 | 12.9 | 12.9 | 0.00 | 0.00 | 0.00 | 71 | 1008.8 |
| 20260507093647 | 21 | 68 | 17.7 | 19.3 | 0.00 | 0.00 | 0.00 | 72 | 1008.8 |
| 20260507093446 | 21 | 68 | 17.7 | 20.9 | 0.00 | 0.00 | 0.00 | 72 | 1008.8 |
| 20260507093235 | 21 | 112 | 14.5 | 16.1 | 0.00 | 0.00 | 0.00 | 73 | 1008.8 |
| 20260507093035 | 21 | 112 | 16.1 | 17.7 | 0.00 | 0.00 | 0.00 | 73 | 1008.8 |
| 20260507092834 | 21 | 45 | 17.7 | 19.3 | 0.00 | 0.00 | 0.00 | 73 | 1008.8 |
| 20260507092623 | 21 | 68 | 16.1 | 17.7 | 0.00 | 0.00 | 0.00 | 73 | 1008.8 |
| 20260507092422 | 21 | 68 | 17.7 | 17.7 | 0.00 | 0.00 | 0.00 | 73 | 1008.8 |
| 20260507092223 | 21 | 90 | 19.3 | 22.5 | 0.00 | 0.00 | 0.00 | 73 | 1008.8 |
| 20260507092011 | 21 | 90 | 14.5 | 16.1 | 0.00 | 0.00 | 0.00 | 71 | 1008.8 |
| 20260507091810 | 21 | 68 | 14.5 | 16.1 | 0.00 | 0.00 | 0.00 | 73 | 1008.8 |
| 20260507091611 | 21 | 68 | 14.5 | 16.1 | 0.00 | 0.00 | 0.00 | 74 | 1008.8 |
| 20260507091359 | 21 | 68 | 16.1 | 16.1 | 0.00 | 0.00 | 0.00 | 73 | 1008.8 |
| 20260507091158 | 21 | 45 | 14.5 | 16.1 | 0.00 | 0.00 | 0.00 | 74 | 1008.8 |
| 20260507090959 | 21 | 90 | 14.5 | 16.1 | 0.00 | 0.00 | 0.00 | 73 | 1008.8 |
| 20260507090747 | 21 | 90 | 16.1 | 16.1 | 0.00 | 0.00 | 0.00 | 71 | 1008.8 |
| 20260507090546 | 21 | 112 | 16.1 | 17.7 | 0.00 | 0.00 | 0.00 | 73 | 1008.8 |
| 20260507090346 | 21 | 68 | 20.9 | 25.7 | 0.00 | 0.00 | 0.00 | 73 | 1008.8 |
| 20260507090135 | 21 | 68 | 16.1 | 16.1 | 0.00 | 0.00 | 0.00 | 73 | 1008.8 |
| 20260507085935 | 21 | 90 | 14.5 | 16.1 | 0.00 | 0.00 | 0.00 | 74 | 1008.8 |
| 20260507085734 | 21 | 90 | 22.5 | 24.1 | 0.00 | 0.00 | 0.00 | 73 | 1008.8 |
| 20260507085523 | 21 | 68 | 16.1 | 16.1 | 0.00 | 0.00 | 0.00 | 73 | 1008.8 |
| 20260507085323 | 21 | 112 | 16.1 | 20.9 | 0.00 | 0.00 | 0.00 | 74 | 1008.8 |
| 20260507085123 | 21 | 112 | 16.1 | 19.3 | 0.00 | 0.00 | 0.00 | 73 | 1008.8 |
| 20260507084911 | 20 | 112 | 14.5 | 17.7 | 0.00 | 0.00 | 0.00 | 74 | 1008.8 |
| 20260507084710 | 20 | 68 | 22.5 | 24.1 | 0.00 | 0.00 | 0.00 | 72 | 1008.8 |
| 20260507084510 | 20 | 68 | 20.9 | 24.1 | 0.00 | 0.00 | 0.00 | 75 | 1008.8 |
| 20260507084259 | 20 | 112 | 24.1 | 25.7 | 0.00 | 0.00 | 0.00 | 73 | 1008.8 |
| 20260507084058 | 20 | 90 | 22.5 | 24.1 | 0.00 | 0.00 | 0.00 | 73 | 1008.8 |
| 20260507083858 | 20 | 90 | 14.5 | 16.1 | 0.00 | 0.00 | 0.00 | 73 | 1008.8 |
| 20260507083647 | 20 | 112 | 14.5 | 16.1 | 0.00 | 0.00 | 0.00 | 73 | 1008.8 |
| 20260507083446 | 20 | 112 | 16.1 | 16.1 | 0.00 | 0.00 | 0.00 | 74 | 1008.8 |
| 20260507083246 | 20 | 68 | 16.1 | 20.9 | 0.00 | 0.00 | 0.00 | 73 | 1008.8 |
| 20260507083035 | 20 | 68 | 19.3 | 20.9 | 0.00 | 0.00 | 0.00 | 75 | 1008.8 |
| 20260507082834 | 20 | 45 | 14.5 | 14.5 | 0.00 | 0.00 | 0.00 | 75 | 1008.8 |
| 20260507082634 | 20 | 68 | 19.3 | 22.5 | 0.00 | 0.00 | 0.00 | 74 | 1008.8 |
| 20260507082423 | 20 | 68 | 19.3 | 20.9 | 0.00 | 0.00 | 0.00 | 73 | 1008.8 |
| 20260507082223 | 20 | 90 | 22.5 | 24.1 | 0.00 | 0.00 | 0.00 | 74 | 1008.8 |
| 20260507082022 | 20 | 90 | 17.7 | 17.7 | 0.00 | 0.00 | 0.00 | 74 | 1008.8 |
| 20260507081811 | 20 | 68 | 22.5 | 24.1 | 0.00 | 0.00 | 0.00 | 73 | 1008.8 |
| 20260507081610 | 20 | 68 | 17.7 | 19.3 | 0.00 | 0.00 | 0.00 | 75 | 1008.8 |
| 20260507081410 | 20 | 68 | 17.7 | 19.3 | 0.00 | 0.00 | 0.00 | 74 | 1008.8 |
| 20260507081159 | 20 | 90 | 14.5 | 16.1 | 0.00 | 0.00 | 0.00 | 74 | 1008.8 |
| 20260507080958 | 21 | 90 | 14.5 | 16.1 | 0.00 | 0.00 | 0.00 | 72 | 1008.8 |
| 20260507080758 | 21 | 112 | 14.5 | 16.1 | 0.00 | 0.00 | 0.00 | 70 | 1008.8 |
| 20260507080547 | 20 | 90 | 8.0 | 8.0 | 0.00 | 0.00 | 0.00 | 73 | 1008.8 |
| 20260507080346 | 20 | 112 | 14.5 | 16.1 | 0.00 | 0.00 | 0.00 | 71 | 1008.8 |
| 20260507080146 | 20 | 90 | 11.3 | 12.9 | 0.00 | 0.00 | 0.00 | 71 | 1008.8 |
| 20260507075935 | 20 | 90 | 9.7 | 9.7 | 0.00 | 0.00 | 0.00 | 71 | 1008.8 |
| 20260507075734 | 20 | 90 | 16.1 | 17.7 | 0.00 | 0.00 | 0.00 | 74 | 1008.8 |
| 20260507075534 | 20 | 68 | 11.3 | 11.3 | 0.00 | 0.00 | 0.00 | 74 | 1008.8 |
| 20260507075323 | 20 | 68 | 17.7 | 20.9 | 0.00 | 0.00 | 0.00 | 74 | 1008.8 |
| 20260507075122 | 20 | 68 | 14.5 | 19.3 | 0.00 | 0.00 | 0.00 | 75 | 1008.8 |
| 20260507074923 | 20 | 112 | 11.3 | 11.3 | 0.00 | 0.00 | 0.00 | 75 | 1008.8 |
| 20260507074711 | 20 | 112 | 14.5 | 17.7 | 0.00 | 0.00 | 0.00 | 74 | 1008.8 |
| 20260507074510 | 20 | 90 | 14.5 | 14.5 | 0.00 | 0.00 | 0.00 | 76 | 1009.8 |
| 20260507074310 | 20 | 68 | 12.9 | 12.9 | 0.00 | 0.00 | 0.00 | 77 | 1009.8 |
| 20260507074059 | 20 | 68 | 14.5 | 17.7 | 0.00 | 0.00 | 0.00 | 76 | 1009.8 |
| 20260507073858 | 20 | 68 | 12.9 | 14.5 | 0.00 | 0.00 | 0.00 | 76 | 1009.8 |
| 20260507073658 | 20 | 22 | 12.9 | 14.5 | 0.00 | 0.00 | 0.00 | 75 | 1009.8 |
| 20260507073447 | 20 | 112 | 14.5 | 16.1 | 0.00 | 0.00 | 0.00 | 77 | 1009.8 |
| 20260507073246 | 20 | 68 | 17.7 | 19.3 | 0.00 | 0.00 | 0.00 | 77 | 1009.8 |
| 20260507073046 | 20 | 68 | 17.7 | 19.3 | 0.00 | 0.00 | 0.00 | 75 | 1009.8 |
| 20260507072835 | 20 | 90 | 16.1 | 16.1 | 0.00 | 0.00 | 0.00 | 76 | 1009.8 |
| 20260507072634 | 20 | 68 | 11.3 | 12.9 | 0.00 | 0.00 | 0.00 | 78 | 1009.8 |
| 20260507072434 | 20 | 68 | 16.1 | 16.1 | 0.00 | 0.00 | 0.00 | 78 | 1009.8 |
| 20260507072223 | 20 | 68 | 17.7 | 19.3 | 0.00 | 0.00 | 0.00 | 78 | 1009.8 |
| 20260507072022 | 20 | 68 | 14.5 | 14.5 | 0.00 | 0.00 | 0.00 | 77 | 1009.8 |
| 20260507071822 | 20 | 90 | 14.5 | 16.1 | 0.00 | 0.00 | 0.00 | 76 | 1009.8 |
| 20260507071611 | 20 | 68 | 16.1 | 16.1 | 0.00 | 0.00 | 0.00 | 78 | 1009.8 |
| 20260507071410 | 20 | 68 | 16.1 | 17.7 | 0.00 | 0.00 | 0.00 | 78 | 1008.8 |
| 20260507071210 | 20 | 90 | 12.9 | 14.5 | 0.00 | 0.00 | 0.00 | 78 | 1008.8 |
| 20260507070959 | 20 | 68 | 12.9 | 14.5 | 0.00 | 0.00 | 0.00 | 78 | 1008.8 |
| 20260507070759 | 20 | 68 | 14.5 | 16.1 | 0.00 | 0.00 | 0.00 | 78 | 1008.8 |
| 20260507070558 | 20 | 90 | 11.3 | 12.9 | 0.00 | 0.00 | 0.00 | 78 | 1008.8 |
| 20260507070347 | 20 | 68 | 17.7 | 19.3 | 0.00 | 0.00 | 0.00 | 79 | 1008.8 |
| 20260507070146 | 20 | 68 | 14.5 | 14.5 | 0.00 | 0.00 | 0.00 | 79 | 1009.8 |
| 20260507065946 | 20 | 90 | 12.9 | 14.5 | 0.00 | 0.00 | 0.00 | 80 | 1009.8 |
| 20260507065735 | 20 | 68 | 14.5 | 16.1 | 0.00 | 0.00 | 0.00 | 79 | 1009.8 |
| 20260507065534 | 20 | 68 | 20.9 | 24.1 | 0.00 | 0.00 | 0.00 | 78 | 1009.8 |
| 20260507065334 | 20 | 45 | 14.5 | 14.5 | 0.00 | 0.00 | 0.00 | 79 | 1009.8 |
| 20260507065123 | 20 | 90 | 8.0 | 8.0 | 0.00 | 0.00 | 0.00 | 80 | 1009.8 |
| 20260507064922 | 20 | 68 | 11.3 | 12.9 | 0.00 | 0.00 | 0.00 | 80 | 1008.8 |
| 20260507064722 | 19 | 68 | 16.1 | 16.1 | 0.00 | 0.00 | 0.00 | 80 | 1008.8 |
| 20260507064511 | 19 | 68 | 12.9 | 12.9 | 0.00 | 0.00 | 0.00 | 80 | 1008.8 |
| 20260507064310 | 19 | 68 | 9.7 | 9.7 | 0.00 | 0.00 | 0.00 | 80 | 1008.8 |
| 20260507064110 | 19 | 112 | 11.3 | 11.3 | 0.00 | 0.00 | 0.00 | 80 | 1008.8 |
| 20260507063859 | 19 | 68 | 14.5 | 16.1 | 0.00 | 0.00 | 0.00 | 81 | 1008.8 |
| 20260507063658 | 19 | 22 | 11.3 | 12.9 | 0.00 | 0.00 | 0.00 | 80 | 1008.8 |
| 20260507063458 | 19 | 68 | 12.9 | 14.5 | 0.00 | 0.00 | 0.00 | 80 | 1008.8 |
| 20260507063247 | 19 | 90 | 11.3 | 12.9 | 0.00 | 0.00 | 0.00 | 81 | 1008.8 |
| 20260507063046 | 19 | 45 | 14.5 | 14.5 | 0.00 | 0.00 | 0.00 | 81 | 1009.8 |
| 20260507062846 | 19 | 90 | 14.5 | 16.1 | 0.00 | 0.00 | 0.00 | 81 | 1009.8 |
| 20260507062635 | 19 | 68 | 12.9 | 12.9 | 0.00 | 0.00 | 0.00 | 82 | 1009.8 |
| 20260507062434 | 19 | 68 | 16.1 | 16.1 | 0.00 | 0.00 | 0.00 | 81 | 1009.8 |
| 20260507062234 | 19 | 90 | 12.9 | 14.5 | 0.00 | 0.00 | 0.00 | 81 | 1009.8 |
| 20260507062023 | 19 | 68 | 16.1 | 17.7 | 0.00 | 0.00 | 0.00 | 81 | 1009.8 |
| 20260507061822 | 19 | 68 | 14.5 | 16.1 | 0.00 | 0.00 | 0.00 | 82 | 1008.8 |
| 20260507061622 | 19 | 90 | 12.9 | 14.5 | 0.00 | 0.00 | 0.00 | 82 | 1008.8 |
| 20260507061411 | 19 | 68 | 14.5 | 16.1 | 0.00 | 0.00 | 0.00 | 83 | 1008.8 |
| 20260507061210 | 19 | 45 | 9.7 | 9.7 | 0.00 | 0.00 | 0.00 | 84 | 1008.8 |
| 20260507061010 | 19 | 45 | 14.5 | 17.7 | 0.00 | 0.00 | 0.00 | 84 | 1008.8 |
| 20260507060759 | 19 | 68 | 16.1 | 16.1 | 0.00 | 0.00 | 0.00 | 84 | 1008.8 |
| 20260507060558 | 19 | 68 | 14.5 | 17.7 | 0.00 | 0.00 | 0.00 | 84 | 1008.8 |
| 20260507060358 | 18 | 68 | 12.9 | 12.9 | 0.00 | 0.00 | 0.00 | 84 | 1008.8 |
| 20260507060147 | 18 | 45 | 14.5 | 16.1 | 0.00 | 0.00 | 0.00 | 86 | 1008.8 |
| 20260507055946 | 18 | 68 | 12.9 | 16.1 | 0.00 | 0.00 | 0.00 | 86 | 1009.8 |
| 20260507055746 | 18 | 68 | 8.0 | 8.0 | 0.00 | 0.00 | 0.00 | 87 | 1009.8 |
| 20260507055535 | 18 | 68 | 9.7 | 11.3 | 0.00 | 0.00 | 0.00 | 87 | 1009.8 |
| 20260507055334 | 18 | 68 | 12.9 | 14.5 | 0.00 | 0.00 | 0.00 | 88 | 1009.8 |
| 20260507055134 | 18 | 68 | 12.9 | 12.9 | 0.00 | 0.00 | 0.00 | 88 | 1009.8 |
| 20260507054923 | 18 | 68 | 11.3 | 11.3 | 0.00 | 0.00 | 0.00 | 88 | 1009.8 |
| 20260507054722 | 18 | 68 | 11.3 | 12.9 | 0.00 | 0.00 | 0.00 | 88 | 1009.8 |
| 20260507054522 | 18 | 68 | 8.0 | 8.0 | 0.00 | 0.00 | 0.00 | 89 | 1009.8 |
| 20260507054311 | 18 | 68 | 12.9 | 12.9 | 0.00 | 0.00 | 0.00 | 89 | 1009.8 |
| 20260507054110 | 18 | 90 | 11.3 | 12.9 | 0.00 | 0.00 | 0.00 | 89 | 1009.8 |
| 20260507053910 | 18 | 68 | 11.3 | 12.9 | 0.00 | 0.00 | 0.00 | 90 | 1009.8 |
| 20260507053659 | 18 | 68 | 9.7 | 11.3 | 0.00 | 0.00 | 0.00 | 89 | 1009.8 |
| 20260507053458 | 18 | 68 | 8.0 | 8.0 | 0.00 | 0.00 | 0.00 | 90 | 1009.8 |
| 20260507053258 | 18 | 68 | 12.9 | 12.9 | 0.00 | 0.00 | 0.00 | 91 | 1009.8 |
| 20260507053047 | 18 | 45 | 11.3 | 12.9 | 0.00 | 0.00 | 0.00 | 90 | 1009.8 |
| 20260507052846 | 18 | 68 | 9.7 | 9.7 | 0.00 | 0.00 | 0.00 | 91 | 1009.8 |
| 20260507052646 | 18 | 0 | 12.9 | 14.5 | 0.00 | 0.00 | 0.00 | 91 | 1009.8 |
| 20260507052435 | 18 | 68 | 11.3 | 11.3 | 0.00 | 0.00 | 0.00 | 91 | 1009.8 |
| 20260507052234 | 18 | 68 | 12.9 | 12.9 | 0.00 | 0.00 | 0.00 | 92 | 1009.8 |
| 20260507052034 | 18 | 68 | 9.7 | 9.7 | 0.00 | 0.00 | 0.00 | 92 | 1009.8 |
| 20260507051823 | 18 | 68 | 12.9 | 12.9 | 0.00 | 0.00 | 0.00 | 92 | 1009.8 |
| 20260507051622 | 17 | 68 | 8.0 | 8.0 | 0.00 | 0.00 | 0.00 | 92 | 1008.8 |
| 20260507051422 | 17 | 68 | 9.7 | 9.7 | 0.00 | 0.00 | 0.00 | 92 | 1008.8 |
| 20260507051211 | 17 | 68 | 11.3 | 11.3 | 0.00 | 0.00 | 0.00 | 92 | 1008.8 |
| 20260507051010 | 17 | 45 | 14.5 | 16.1 | 0.00 | 0.00 | 0.00 | 92 | 1008.8 |
| 20260507050810 | 17 | 68 | 9.7 | 9.7 | 0.00 | 0.00 | 0.00 | 92 | 1008.8 |
| 20260507050611 | 17 | 68 | 9.7 | 9.7 | 0.00 | 0.00 | 0.00 | 92 | 1008.8 |
| 20260507050410 | 17 | 45 | 9.7 | 9.7 | 0.00 | 0.00 | 0.00 | 92 | 1008.8 |
| 20260507050210 | 17 | 45 | 8.0 | 8.0 | 0.00 | 0.00 | 0.00 | 92 | 1008.8 |
| 20260507045959 | 17 | 68 | 11.3 | 11.3 | 0.00 | 0.00 | 0.00 | 92 | 1008.8 |
| 20260507045758 | 17 | 68 | 12.9 | 12.9 | 0.00 | 0.00 | 0.00 | 93 | 1008.8 |
| 20260507045558 | 17 | 68 | 12.9 | 12.9 | 0.00 | 0.00 | 0.00 | 93 | 1008.8 |
| 20260507045347 | 17 | 45 | 9.7 | 9.7 | 0.00 | 0.00 | 0.00 | 93 | 1008.8 |
| 20260507045146 | 17 | 68 | 11.3 | 11.3 | 0.00 | 0.00 | 0.00 | 93 | 1008.8 |
| 20260507044946 | 17 | 68 | 11.3 | 11.3 | 0.00 | 0.00 | 0.00 | 93 | 1008.8 |
| 20260507044747 | 17 | 68 | 8.0 | 8.0 | 0.00 | 0.00 | 0.00 | 93 | 1008.8 |
| 20260507044546 | 17 | 68 | 12.9 | 14.5 | 0.00 | 0.00 | 0.00 | 93 | 1009.8 |
| 20260507044346 | 17 | 68 | 8.0 | 8.0 | 0.00 | 0.00 | 0.00 | 94 | 1009.8 |
| 20260507044135 | 17 | 68 | 8.0 | 8.0 | 0.00 | 0.00 | 0.00 | 94 | 1009.8 |
| 20260507043934 | 17 | 68 | 9.7 | 9.7 | 0.00 | 0.00 | 0.00 | 94 | 1009.8 |
| 20260507043734 | 17 | 68 | 8.0 | 8.0 | 0.00 | 0.00 | 0.00 | 94 | 1009.8 |
| 20260507043523 | 17 | 22 | 8.0 | 8.0 | 0.00 | 0.00 | 0.00 | 94 | 1009.8 |
| 20260507043322 | 17 | 68 | 8.0 | 8.0 | 0.00 | 0.00 | 0.00 | 94 | 1008.8 |
| 20260507043122 | 17 | 45 | 9.7 | 9.7 | 0.00 | 0.00 | 0.00 | 94 | 1008.8 |
| 20260507042911 | 17 | 45 | 8.0 | 8.0 | 0.00 | 0.00 | 0.00 | 94 | 1008.8 |
| 20260507042710 | 17 | 68 | 6.4 | 6.4 | 0.00 | 0.00 | 0.00 | 94 | 1008.8 |
| 20260507042510 | 17 | 68 | 8.0 | 8.0 | 0.00 | 0.00 | 0.00 | 95 | 1008.8 |
| 20260507042259 | 17 | 45 | 9.7 | 11.3 | 0.00 | 0.00 | 0.00 | 95 | 1008.8 |
| 20260507042058 | 17 | 45 | 9.7 | 9.7 | 0.00 | 0.00 | 0.00 | 95 | 1008.8 |
| 20260507041858 | 17 | 22 | 8.0 | 8.0 | 0.00 | 0.00 | 0.00 | 95 | 1008.8 |
| 20260507041659 | 17 | 68 | 8.0 | 8.0 | 0.00 | 0.00 | 0.00 | 95 | 1008.8 |
| 20260507041458 | 17 | 68 | 8.0 | 8.0 | 0.00 | 0.00 | 0.00 | 95 | 1008.8 |
| 20260507041258 | 17 | 22 | 9.7 | 9.7 | 0.00 | 0.00 | 0.00 | 95 | 1008.8 |
| 20260507041059 | 17 | 68 | 8.0 | 8.0 | 0.00 | 0.00 | 0.00 | 95 | 1008.8 |
| 20260507040858 | 17 | 68 | 9.7 | 9.7 | 0.00 | 0.00 | 0.00 | 95 | 1008.8 |
| 20260507040658 | 17 | 68 | 11.3 | 12.9 | 0.00 | 0.00 | 0.00 | 95 | 1008.8 |
| 20260507040459 | 17 | 68 | 9.7 | 9.7 | 0.00 | 0.00 | 0.00 | 95 | 1008.8 |
| 20260507040258 | 17 | 45 | 8.0 | 8.0 | 0.00 | 0.00 | 0.00 | 95 | 1009.8 |
| 20260507040058 | 17 | 68 | 11.3 | 11.3 | 0.00 | 0.00 | 0.00 | 95 | 1009.8 |
| 20260507035859 | 17 | 68 | 12.9 | 14.5 | 0.00 | 0.00 | 0.00 | 95 | 1009.8 |
| 20260507035658 | 17 | 68 | 9.7 | 9.7 | 0.00 | 0.00 | 0.00 | 95 | 1009.8 |
| 20260507035458 | 17 | 45 | 9.7 | 11.3 | 0.00 | 0.00 | 0.00 | 95 | 1009.8 |
| 20260507035247 | 17 | 68 | 11.3 | 12.9 | 0.00 | 0.00 | 0.00 | 95 | 1009.8 |
| 20260507035046 | 17 | 45 | 8.0 | 8.0 | 0.00 | 0.00 | 0.00 | 95 | 1009.8 |
| 20260507034846 | 17 | 45 | 11.3 | 12.9 | 0.00 | 0.00 | 0.00 | 95 | 1009.8 |
| 20260507034635 | 17 | 68 | 11.3 | 11.3 | 0.00 | 0.00 | 0.00 | 95 | 1009.8 |
| 20260507034434 | 17 | 22 | 9.7 | 9.7 | 0.00 | 0.00 | 0.00 | 95 | 1009.8 |
| 20260507034234 | 17 | 22 | 8.0 | 8.0 | 0.00 | 0.00 | 0.00 | 95 | 1009.8 |
| 20260507034035 | 17 | 45 | 11.3 | 11.3 | 0.00 | 0.00 | 0.00 | 95 | 1009.8 |
| 20260507033834 | 17 | 45 | 9.7 | 9.7 | 0.00 | 0.00 | 0.00 | 95 | 1009.8 |
| 20260507033634 | 17 | 68 | 9.7 | 9.7 | 0.00 | 0.00 | 0.00 | 95 | 1009.8 |
| 20260507033423 | 17 | 45 | 11.3 | 12.9 | 0.00 | 0.00 | 0.00 | 95 | 1009.8 |
| 20260507033222 | 17 | 68 | 12.9 | 12.9 | 0.00 | 0.00 | 0.00 | 95 | 1009.8 |
| 20260507033022 | 17 | 68 | 9.7 | 9.7 | 0.00 | 0.00 | 0.00 | 95 | 1009.8 |
| 20260507032823 | 17 | 45 | 9.7 | 9.7 | 0.00 | 0.00 | 0.00 | 95 | 1009.8 |
| 20260507032622 | 17 | 68 | 8.0 | 9.7 | 0.00 | 0.00 | 0.00 | 95 | 1009.8 |
| 20260507032422 | 17 | 45 | 9.7 | 9.7 | 0.00 | 0.00 | 0.00 | 95 | 1009.8 |
| 20260507032223 | 17 | 45 | 9.7 | 9.7 | 0.00 | 0.00 | 0.00 | 95 | 1009.8 |
| 20260507032022 | 17 | 45 | 12.9 | 12.9 | 0.00 | 0.00 | 0.00 | 95 | 1009.8 |
| 20260507031822 | 17 | 68 | 8.0 | 8.0 | 0.00 | 0.00 | 0.00 | 95 | 1009.8 |
| 20260507031611 | 17 | 45 | 11.3 | 11.3 | 0.00 | 0.00 | 0.00 | 95 | 1009.8 |
| 20260507031410 | 17 | 45 | 8.0 | 8.0 | 0.00 | 0.00 | 0.00 | 95 | 1009.8 |
| 20260507031210 | 17 | 45 | 9.7 | 9.7 | 0.00 | 0.00 | 0.00 | 95 | 1009.8 |
| 20260507030959 | 17 | 68 | 8.0 | 9.7 | 0.00 | 0.00 | 0.00 | 95 | 1009.8 |
| 20260507030758 | 17 | 68 | 6.4 | 8.0 | 0.00 | 0.00 | 0.00 | 95 | 1009.8 |
| 20260507030558 | 17 | 68 | 3.2 | 3.2 | 0.00 | 0.00 | 0.00 | 95 | 1009.8 |
| 20260507030358 | 17 | 45 | 8.0 | 8.0 | 0.00 | 0.00 | 0.00 | 95 | 1009.8 |
| 20260507025946 | 17 | 68 | 8.0 | 8.0 | 0.00 | 0.00 | 0.00 | 95 | 1009.8 |
| 20260507025747 | 17 | 68 | 8.0 | 8.0 | 0.00 | 0.00 | 0.00 | 95 | 1009.8 |
| 20260507025546 | 17 | 45 | 8.0 | 8.0 | 0.00 | 0.00 | 0.00 | 95 | 1009.8 |
| 20260507025346 | 17 | 22 | 8.0 | 8.0 | 0.00 | 0.00 | 0.00 | 95 | 1009.8 |
| 20260507025135 | 17 | 45 | 6.4 | 8.0 | 0.00 | 0.00 | 0.00 | 95 | 1009.8 |
| 20260507024934 | 17 | 68 | 8.0 | 8.0 | 0.00 | 0.00 | 0.00 | 95 | 1009.8 |
| 20260507024734 | 17 | 68 | 8.0 | 8.0 | 0.00 | 0.00 | 0.00 | 95 | 1009.8 |
| 20260507024535 | 17 | 68 | 9.7 | 9.7 | 0.00 | 0.00 | 0.00 | 95 | 1009.8 |
| 20260507024334 | 17 | 338 | 9.7 | 9.7 | 0.00 | 0.00 | 0.00 | 95 | 1009.8 |
| 20260507024134 | 17 | 45 | 4.8 | 4.8 | 0.00 | 0.00 | 0.00 | 95 | 1009.8 |
| 20260507023935 | 17 | 22 | 8.0 | 8.0 | 0.00 | 0.00 | 0.00 | 95 | 1009.8 |
| 20260507023734 | 17 | 22 | 4.8 | 6.4 | 0.00 | 0.00 | 0.00 | 95 | 1009.8 |
| 20260507023534 | 17 | 68 | 9.7 | 9.7 | 0.00 | 0.00 | 0.00 | 95 | 1009.8 |
| 20260507023335 | 17 | 45 | 8.0 | 8.0 | 0.00 | 0.00 | 0.00 | 95 | 1009.8 |
| 20260507023134 | 17 | 68 | 8.0 | 8.0 | 0.00 | 0.00 | 0.00 | 95 | 1009.8 |
| 20260507022934 | 17 | 68 | 9.7 | 9.7 | 0.00 | 0.00 | 0.00 | 95 | 1009.8 |
| 20260507022723 | 17 | 45 | 9.7 | 9.7 | 0.00 | 0.00 | 0.00 | 95 | 1009.8 |
| 20260507022522 | 17 | 45 | 9.7 | 11.3 | 0.00 | 0.00 | 0.00 | 95 | 1009.8 |
| 20260507022322 | 17 | 45 | 8.0 | 8.0 | 0.00 | 0.00 | 0.00 | 95 | 1009.8 |
| 20260507022123 | 17 | 45 | 6.4 | 8.0 | 0.00 | 0.00 | 0.00 | 95 | 1009.8 |
| 20260507021922 | 17 | 22 | 6.4 | 6.4 | 0.00 | 0.00 | 0.00 | 95 | 1009.8 |
| 20260507021722 | 17 | 68 | 4.8 | 4.8 | 0.00 | 0.00 | 0.00 | 95 | 1009.8 |
| 20260507021523 | 17 | 45 | 8.0 | 8.0 | 0.00 | 0.00 | 0.00 | 95 | 1009.8 |
| 20260507021322 | 17 | 22 | 4.8 | 4.8 | 0.00 | 0.00 | 0.00 | 95 | 1009.8 |
| 20260507021122 | 17 | 68 | 3.2 | 3.2 | 0.00 | 0.00 | 0.00 | 95 | 1009.8 |
| 20260507020923 | 17 | 68 | 8.0 | 8.0 | 0.00 | 0.00 | 0.00 | 95 | 1009.8 |
| 20260507020722 | 17 | 68 | 4.8 | 4.8 | 0.00 | 0.00 | 0.00 | 95 | 1009.8 |
| 20260507020522 | 17 | 68 | 8.0 | 8.0 | 0.00 | 0.00 | 0.00 | 95 | 1009.8 |
| 20260507020323 | 17 | 90 | 8.0 | 8.0 | 0.00 | 0.00 | 0.00 | 95 | 1009.8 |
| 20260507020122 | 17 | 68 | 6.4 | 8.0 | 0.00 | 0.00 | 0.00 | 95 | 1008.8 |
| 20260507015922 | 17 | 45 | 8.0 | 8.0 | 0.00 | 0.00 | 0.00 | 95 | 1008.8 |
| 20260507015723 | 17 | 22 | 8.0 | 8.0 | 0.00 | 0.00 | 0.00 | 95 | 1008.8 |
| 20260507015522 | 17 | 45 | 9.7 | 11.3 | 0.00 | 0.00 | 0.00 | 95 | 1008.8 |
| 20260507015322 | 17 | 68 | 12.9 | 12.9 | 0.00 | 0.00 | 0.00 | 95 | 1008.8 |
| 20260507015123 | 17 | 45 | 12.9 | 12.9 | 0.00 | 0.00 | 0.00 | 95 | 1008.8 |
| 20260507014922 | 17 | 22 | 11.3 | 12.9 | 0.00 | 0.00 | 0.00 | 95 | 1008.8 |
| 20260507014722 | 17 | 22 | 12.9 | 16.1 | 0.00 | 0.00 | 0.00 | 95 | 1008.8 |
| 20260507014523 | 17 | 68 | 11.3 | 12.9 | 0.00 | 0.00 | 0.00 | 95 | 1008.8 |
| 20260507014322 | 17 | 22 | 11.3 | 11.3 | 0.00 | 0.00 | 0.00 | 95 | 1008.8 |
| 20260507014122 | 17 | 68 | 9.7 | 9.7 | 0.00 | 0.00 | 0.00 | 95 | 1008.8 |
| 20260507013923 | 17 | 338 | 8.0 | 8.0 | 0.00 | 0.00 | 0.00 | 95 | 1008.8 |
| 20260507013722 | 17 | 22 | 8.0 | 8.0 | 0.00 | 0.00 | 0.00 | 95 | 1008.8 |
| 20260507013522 | 17 | 45 | 8.0 | 8.0 | 0.00 | 0.00 | 0.00 | 95 | 1008.8 |
| 20260507013323 | 17 | 22 | 9.7 | 11.3 | 0.00 | 0.00 | 0.00 | 95 | 1008.8 |
| 20260507013122 | 17 | 22 | 8.0 | 8.0 | 0.00 | 0.00 | 0.00 | 95 | 1008.8 |
| 20260507012922 | 17 | 45 | 6.4 | 6.4 | 0.00 | 0.00 | 0.00 | 95 | 1008.8 |
| 20260507012723 | 17 | 45 | 4.8 | 4.8 | 0.00 | 0.00 | 0.00 | 95 | 1008.8 |
| 20260507012522 | 17 | 45 | 8.0 | 8.0 | 0.00 | 0.00 | 0.00 | 95 | 1008.8 |
| 20260507012322 | 17 | 68 | 8.0 | 8.0 | 0.00 | 0.00 | 0.00 | 95 | 1008.8 |
| 20260507012123 | 17 | 22 | 8.0 | 8.0 | 0.00 | 0.00 | 0.00 | 95 | 1008.8 |
| 20260507011922 | 17 | 68 | 8.0 | 8.0 | 0.00 | 0.00 | 0.00 | 95 | 1008.8 |
| 20260507011722 | 17 | 45 | 11.3 | 12.9 | 0.00 | 0.00 | 0.00 | 95 | 1008.8 |
| 20260507011523 | 17 | 68 | 9.7 | 9.7 | 0.00 | 0.00 | 0.00 | 95 | 1008.8 |
| 20260507011322 | 17 | 22 | 4.8 | 4.8 | 0.00 | 0.00 | 0.00 | 95 | 1009.8 |
| 20260507011122 | 17 | 68 | 6.4 | 6.4 | 0.00 | 0.00 | 0.00 | 95 | 1009.8 |
| 20260507010923 | 17 | 22 | 9.7 | 9.7 | 0.00 | 0.00 | 0.00 | 95 | 1009.8 |
| 20260507010722 | 17 | 22 | 9.7 | 9.7 | 0.00 | 0.00 | 0.00 | 95 | 1009.8 |
| 20260507010522 | 17 | 22 | 12.9 | 12.9 | 0.00 | 0.00 | 0.00 | 95 | 1009.8 |
| 20260507010323 | 17 | 45 | 8.0 | 9.7 | 0.00 | 0.00 | 0.00 | 95 | 1009.8 |
| 20260507010122 | 17 | 45 | 8.0 | 8.0 | 0.00 | 0.00 | 0.00 | 95 | 1009.8 |
| 20260507005922 | 17 | 45 | 8.0 | 8.0 | 0.00 | 0.00 | 0.00 | 95 | 1009.8 |
| 20260507005723 | 17 | 45 | 9.7 | 9.7 | 0.00 | 0.00 | 0.00 | 95 | 1009.8 |
| 20260507005522 | 17 | 22 | 8.0 | 8.0 | 0.00 | 0.00 | 0.00 | 95 | 1009.8 |
| 20260507005322 | 17 | 45 | 8.0 | 8.0 | 0.00 | 0.00 | 0.00 | 95 | 1009.8 |
| 20260507005123 | 17 | 45 | 9.7 | 9.7 | 0.00 | 0.00 | 0.00 | 95 | 1009.8 |
| 20260507004922 | 17 | 90 | 6.4 | 6.4 | 0.00 | 0.00 | 0.00 | 95 | 1009.8 |
| 20260507004722 | 17 | 45 | 4.8 | 4.8 | 0.00 | 0.00 | 0.00 | 95 | 1009.8 |
| 20260507004523 | 17 | 22 | 11.3 | 12.9 | 0.00 | 0.00 | 0.00 | 95 | 1009.8 |
| 20260507004322 | 17 | 45 | 3.2 | 3.2 | 0.00 | 0.00 | 0.00 | 95 | 1009.8 |
| 20260507004122 | 17 | 0 | 0.0 | 0.0 | 0.00 | 0.00 | 0.00 | 95 | 1009.8 |
| 20260507003923 | 17 | 22 | 4.8 | 6.4 | 0.00 | 0.00 | 0.00 | 95 | 1009.8 |
| 20260507003722 | 17 | 22 | 8.0 | 8.0 | 0.00 | 0.00 | 0.00 | 95 | 1009.8 |
| 20260507003522 | 17 | 45 | 9.7 | 11.3 | 0.00 | 0.00 | 0.00 | 95 | 1009.8 |
| 20260507003323 | 17 | 68 | 6.4 | 8.0 | 0.00 | 0.00 | 0.00 | 95 | 1009.8 |
| 20260507003122 | 16 | 22 | 6.4 | 8.0 | 0.00 | 0.00 | 0.00 | 95 | 1009.8 |
| 20260507002922 | 16 | 22 | 8.0 | 8.0 | 0.00 | 0.00 | 0.00 | 95 | 1009.8 |
| 20260507002723 | 16 | 22 | 3.2 | 3.2 | 0.00 | 0.00 | 0.00 | 95 | 1009.8 |
| 20260507002522 | 16 | 22 | 6.4 | 8.0 | 0.00 | 0.00 | 0.00 | 95 | 1009.8 |
| 20260507002322 | 16 | 22 | 4.8 | 6.4 | 0.00 | 0.00 | 0.00 | 95 | 1009.8 |
| 20260507002123 | 16 | 22 | 4.8 | 4.8 | 0.00 | 0.00 | 0.00 | 95 | 1009.8 |
| 20260507001922 | 16 | 22 | 9.7 | 9.7 | 0.00 | 0.00 | 0.00 | 95 | 1009.8 |
| 20260507001722 | 16 | 22 | 6.4 | 8.0 | 0.00 | 0.00 | 0.00 | 95 | 1009.8 |
| 20260507001523 | 16 | 22 | 9.7 | 9.7 | 0.00 | 0.00 | 0.00 | 95 | 1009.8 |
| 20260507001322 | 16 | 45 | 6.4 | 8.0 | 0.00 | 0.00 | 0.00 | 95 | 1009.8 |
| 20260507001122 | 16 | 45 | 4.8 | 4.8 | 0.00 | 0.00 | 0.00 | 95 | 1009.8 |
| 20260507000923 | 16 | 68 | 8.0 | 8.0 | 0.00 | 0.00 | 0.00 | 95 | 1009.8 |
| 20260507000722 | 16 | 0 | 4.8 | 6.4 | 0.00 | 0.00 | 0.00 | 95 | 1009.8 |
| 20260507000522 | 16 | 338 | 0.0 | 0.0 | 0.00 | 0.00 | 0.00 | 95 | 1009.8 |
| 20260507000323 | 16 | 292 | 0.0 | 0.0 | 0.00 | 0.00 | 0.00 | 95 | 1009.8 |
| 20260507000122 | 16 | 315 | 3.2 | 3.2 | 0.00 | 0.00 | 0.00 | 95 | 1009.8 |
| 20260506235922 | 16 | 338 | 1.6 | 1.6 | 0.00 | 0.00 | 0.00 | 95 | 1009.8 |
| 20260506235723 | 16 | 338 | 3.2 | 3.2 | 0.00 | 0.00 | 0.00 | 95 | 1009.8 |
| 20260506235522 | 16 | 315 | 3.2 | 3.2 | 0.00 | 0.00 | 0.00 | 95 | 1009.8 |
| 20260506235322 | 16 | 338 | 0.0 | 0.0 | 0.00 | 0.00 | 0.00 | 95 | 1009.8 |
| 20260506235123 | 16 | 338 | 0.0 | 0.0 | 0.00 | 0.00 | 0.00 | 95 | 1009.8 |
| 20260506234922 | 16 | 338 | 0.0 | 0.0 | 0.00 | 0.00 | 0.00 | 95 | 1009.8 |
| 20260506234722 | 16 | 338 | 3.2 | 3.2 | 0.00 | 0.00 | 0.00 | 95 | 1009.8 |
| 20260506234523 | 16 | 338 | 3.2 | 3.2 | 0.00 | 0.00 | 0.00 | 95 | 1009.8 |
| 20260506234322 | 16 | 338 | 3.2 | 3.2 | 0.00 | 0.00 | 0.00 | 95 | 1009.8 |
| 20260506234122 | 16 | 338 | 1.6 | 1.6 | 0.00 | 0.00 | 0.00 | 95 | 1009.8 |
| 20260506233923 | 16 | 338 | 3.2 | 3.2 | 0.00 | 0.00 | 0.00 | 95 | 1009.8 |
| 20260506233722 | 16 | 338 | 3.2 | 3.2 | 0.00 | 0.00 | 0.00 | 95 | 1009.8 |
| 20260506233522 | 16 | 338 | 1.6 | 1.6 | 0.00 | 0.00 | 0.00 | 95 | 1009.8 |
| 20260506233323 | 16 | 338 | 3.2 | 3.2 | 0.00 | 0.00 | 0.00 | 95 | 1009.8 |
| 20260506233122 | 16 | 338 | 1.6 | 1.6 | 0.00 | 0.00 | 0.00 | 94 | 1009.8 |
| 20260506232922 | 16 | 338 | 0.0 | 0.0 | 0.00 | 0.00 | 0.00 | 94 | 1009.8 |
| 20260506232723 | 16 | 338 | 0.0 | 0.0 | 0.00 | 0.00 | 0.00 | 94 | 1009.8 |
| 20260506232522 | 16 | 338 | 1.6 | 1.6 | 0.00 | 0.00 | 0.00 | 94 | 1009.8 |
| 20260506232322 | 16 | 338 | 3.2 | 3.2 | 0.00 | 0.00 | 0.00 | 94 | 1009.8 |
| 20260506232123 | 16 | 338 | 0.0 | 0.0 | 0.00 | 0.00 | 0.00 | 94 | 1009.8 |
| 20260506231922 | 16 | 338 | 3.2 | 3.2 | 0.00 | 0.00 | 0.00 | 95 | 1009.8 |
| 20260506231722 | 16 | 338 | 3.2 | 3.2 | 0.00 | 0.00 | 0.00 | 94 | 1009.8 |
| 20260506231523 | 16 | 338 | 3.2 | 3.2 | 0.00 | 0.00 | 0.00 | 94 | 1009.8 |
| 20260506231322 | 16 | 338 | 1.6 | 1.6 | 0.00 | 0.00 | 0.00 | 94 | 1010.8 |
| 20260506231122 | 16 | 338 | 1.6 | 1.6 | 0.00 | 0.00 | 0.00 | 94 | 1010.8 |
| 20260506230923 | 16 | 338 | 3.2 | 3.2 | 0.00 | 0.00 | 0.00 | 94 | 1010.8 |
| 20260506230722 | 16 | 338 | 3.2 | 3.2 | 0.00 | 0.00 | 0.00 | 94 | 1010.8 |
| 20260506230522 | 15 | 338 | 4.8 | 4.8 | 0.00 | 0.00 | 0.00 | 94 | 1010.8 |
| 20260506230323 | 15 | 338 | 0.0 | 0.0 | 0.00 | 0.00 | 0.00 | 94 | 1010.8 |
| 20260506230122 | 15 | 338 | 3.2 | 3.2 | 0.00 | 0.00 | 0.00 | 94 | 1010.8 |
| 20260506225922 | 15 | 338 | 0.0 | 0.0 | 0.00 | 0.00 | 0.00 | 94 | 1010.8 |
| 20260506225723 | 15 | 338 | 3.2 | 3.2 | 0.00 | 0.00 | 0.00 | 94 | 1010.8 |
| 20260506225522 | 15 | 338 | 3.2 | 3.2 | 0.00 | 0.00 | 0.00 | 94 | 1010.8 |
| 20260506225322 | 15 | 338 | 1.6 | 1.6 | 0.00 | 0.00 | 0.00 | 94 | 1010.8 |
| 20260506225123 | 15 | 338 | 0.0 | 0.0 | 0.00 | 0.00 | 0.00 | 94 | 1010.8 |
| 20260506224922 | 15 | 338 | 0.0 | 0.0 | 0.00 | 0.00 | 0.00 | 94 | 1010.8 |
| 20260506224722 | 15 | 338 | 4.8 | 4.8 | 0.00 | 0.00 | 0.00 | 94 | 1010.8 |
| 20260506224523 | 15 | 338 | 3.2 | 3.2 | 0.00 | 0.00 | 0.00 | 94 | 1010.8 |
| 20260506224322 | 15 | 338 | 1.6 | 1.6 | 0.00 | 0.00 | 0.00 | 94 | 1010.8 |
| 20260506224122 | 16 | 338 | 0.0 | 0.0 | 0.00 | 0.00 | 0.00 | 94 | 1010.8 |
| 20260506223923 | 16 | 338 | 1.6 | 1.6 | 0.00 | 0.00 | 0.00 | 94 | 1010.8 |
| 20260506223722 | 16 | 338 | 0.0 | 0.0 | 0.00 | 0.00 | 0.00 | 94 | 1010.8 |
| 20260506223522 | 16 | 338 | 1.6 | 1.6 | 0.00 | 0.00 | 0.00 | 94 | 1010.8 |
| 20260506223323 | 16 | 338 | 3.2 | 3.2 | 0.00 | 0.00 | 0.00 | 94 | 1010.8 |
| 20260506223122 | 16 | 338 | 3.2 | 3.2 | 0.00 | 0.00 | 0.00 | 94 | 1010.8 |
| 20260506222922 | 16 | 338 | 3.2 | 3.2 | 0.00 | 0.00 | 0.00 | 94 | 1010.8 |
| 20260506222723 | 16 | 338 | 3.2 | 3.2 | 0.00 | 0.00 | 0.00 | 94 | 1010.8 |
| 20260506222522 | 16 | 338 | 3.2 | 3.2 | 0.00 | 0.00 | 0.00 | 94 | 1010.8 |
| 20260506222322 | 16 | 338 | 4.8 | 4.8 | 0.00 | 0.00 | 0.00 | 94 | 1010.8 |
| 20260506222123 | 16 | 315 | 3.2 | 3.2 | 0.00 | 0.00 | 0.00 | 94 | 1010.8 |
| 20260506221922 | 16 | 315 | 3.2 | 3.2 | 0.00 | 0.00 | 0.00 | 94 | 1010.8 |
| 20260506221722 | 16 | 315 | 3.2 | 3.2 | 0.00 | 0.00 | 0.00 | 94 | 1010.8 |
| 20260506221523 | 16 | 315 | 3.2 | 3.2 | 0.00 | 0.00 | 0.00 | 93 | 1010.8 |
| 20260506221322 | 16 | 315 | 6.4 | 6.4 | 0.00 | 0.00 | 0.00 | 93 | 1010.8 |
| 20260506221122 | 16 | 315 | 3.2 | 3.2 | 0.00 | 0.00 | 0.00 | 93 | 1010.8 |
| 20260506220923 | 16 | 315 | 4.8 | 4.8 | 0.00 | 0.00 | 0.00 | 93 | 1010.8 |
| 20260506220722 | 16 | 315 | 3.2 | 3.2 | 0.00 | 0.00 | 0.00 | 93 | 1010.8 |
| 20260506220522 | 16 | 315 | 6.4 | 8.0 | 0.00 | 0.00 | 0.00 | 93 | 1010.8 |
| 20260506220323 | 16 | 315 | 8.0 | 8.0 | 0.00 | 0.00 | 0.00 | 93 | 1010.8 |
| 20260506220122 | 16 | 315 | 3.2 | 3.2 | 0.00 | 0.00 | 0.00 | 93 | 1010.8 |
| 20260506215922 | 16 | 315 | 4.8 | 4.8 | 0.00 | 0.00 | 0.00 | 93 | 1010.8 |
| 20260506215723 | 16 | 315 | 3.2 | 3.2 | 0.00 | 0.00 | 0.00 | 93 | 1010.8 |
| 20260506215522 | 16 | 315 | 6.4 | 6.4 | 0.00 | 0.00 | 0.00 | 93 | 1010.8 |
| 20260506215322 | 16 | 315 | 3.2 | 3.2 | 0.00 | 0.00 | 0.00 | 93 | 1010.8 |
| 20260506215123 | 16 | 292 | 1.6 | 1.6 | 0.00 | 0.00 | 0.00 | 93 | 1010.8 |
| 20260506214922 | 16 | 292 | 3.2 | 3.2 | 0.00 | 0.00 | 0.00 | 93 | 1010.8 |
| 20260506214722 | 16 | 292 | 3.2 | 3.2 | 0.00 | 0.00 | 0.00 | 93 | 1010.8 |
| 20260506214523 | 16 | 292 | 4.8 | 4.8 | 0.00 | 0.00 | 0.00 | 93 | 1010.8 |
| 20260506214322 | 16 | 315 | 4.8 | 4.8 | 0.00 | 0.00 | 0.00 | 93 | 1010.8 |
| 20260506214122 | 16 | 315 | 4.8 | 4.8 | 0.00 | 0.00 | 0.00 | 93 | 1010.8 |
| 20260506213923 | 16 | 315 | 4.8 | 6.4 | 0.00 | 0.00 | 0.00 | 93 | 1010.8 |
| 20260506213722 | 16 | 315 | 4.8 | 6.4 | 0.00 | 0.00 | 0.00 | 93 | 1010.8 |
| 20260506213522 | 16 | 338 | 3.2 | 3.2 | 0.00 | 0.00 | 0.00 | 93 | 1010.8 |
| 20260506213323 | 16 | 338 | 3.2 | 3.2 | 0.00 | 0.00 | 0.00 | 93 | 1010.8 |
| 20260506213122 | 16 | 338 | 3.2 | 3.2 | 0.00 | 0.00 | 0.00 | 93 | 1010.8 |
| 20260506212922 | 16 | 338 | 4.8 | 4.8 | 0.00 | 0.00 | 0.00 | 93 | 1010.8 |
| 20260506212723 | 16 | 338 | 3.2 | 3.2 | 0.00 | 0.00 | 0.00 | 93 | 1010.8 |
| 20260506212522 | 16 | 338 | 4.8 | 4.8 | 0.00 | 0.00 | 0.00 | 93 | 1010.8 |
| 20260506212322 | 16 | 338 | 4.8 | 4.8 | 0.00 | 0.00 | 0.00 | 93 | 1010.8 |
| 20260506212123 | 16 | 338 | 4.8 | 4.8 | 0.00 | 0.00 | 0.00 | 92 | 1010.8 |
| 20260506211922 | 17 | 338 | 3.2 | 3.2 | 0.00 | 0.00 | 0.00 | 92 | 1010.8 |
| 20260506211722 | 17 | 338 | 1.6 | 1.6 | 0.00 | 0.00 | 0.00 | 93 | 1010.8 |
| 20260506211523 | 17 | 338 | 3.2 | 3.2 | 0.00 | 0.00 | 0.00 | 93 | 1010.8 |
| 20260506211322 | 17 | 338 | 3.2 | 3.2 | 0.00 | 0.00 | 0.00 | 92 | 1010.8 |
| 20260506211122 | 17 | 338 | 1.6 | 1.6 | 0.00 | 0.00 | 0.00 | 93 | 1010.8 |
| 20260506210923 | 17 | 338 | 4.8 | 4.8 | 0.00 | 0.00 | 0.00 | 93 | 1010.8 |
| 20260506210722 | 17 | 338 | 0.0 | 0.0 | 0.00 | 0.00 | 0.00 | 93 | 1010.8 |
| 20260506210522 | 17 | 338 | 0.0 | 0.0 | 0.00 | 0.00 | 0.00 | 93 | 1010.8 |
| 20260506210323 | 17 | 338 | 0.0 | 0.0 | 0.00 | 0.00 | 0.00 | 93 | 1010.8 |
| 20260506210122 | 17 | 338 | 0.0 | 0.0 | 0.00 | 0.00 | 0.00 | 93 | 1010.8 |
| 20260506205922 | 17 | 338 | 0.0 | 0.0 | 0.00 | 0.00 | 0.00 | 93 | 1010.8 |
| 20260506205711 | 16 | 338 | 0.0 | 0.0 | 0.00 | 0.00 | 0.00 | 93 | 1010.8 |
| 20260506205458 | 16 | 338 | 0.0 | 0.0 | 0.00 | 0.00 | 0.00 | 92 | 1010.8 |
| 20260506205258 | 16 | 338 | 0.0 | 0.0 | 0.00 | 0.00 | 0.00 | 92 | 1010.8 |
| 20260506205059 | 16 | 68 | 3.2 | 3.2 | 0.00 | 0.00 | 0.00 | 92 | 1010.8 |
| 20260506204858 | 16 | 68 | 4.8 | 4.8 | 0.00 | 0.00 | 0.00 | 92 | 1009.8 |
| 20260506204658 | 16 | 68 | 3.2 | 3.2 | 0.00 | 0.00 | 0.00 | 92 | 1009.8 |
| 20260506204459 | 16 | 68 | 3.2 | 3.2 | 0.00 | 0.00 | 0.00 | 92 | 1009.8 |
| 20260506204258 | 17 | 68 | 0.0 | 0.0 | 0.00 | 0.00 | 0.00 | 92 | 1009.8 |
| 20260506204058 | 17 | 68 | 0.0 | 0.0 | 0.00 | 0.00 | 0.00 | 91 | 1009.8 |
| 20260506203847 | 17 | 68 | 0.0 | 0.0 | 0.00 | 0.00 | 0.00 | 92 | 1009.8 |
| 20260506203634 | 17 | 68 | 0.0 | 0.0 | 0.00 | 0.00 | 0.00 | 92 | 1009.8 |
| 20260506203422 | 17 | 68 | 1.6 | 1.6 | 0.00 | 0.00 | 0.00 | 92 | 1009.8 |
| 20260506203212 | 17 | 68 | 1.6 | 1.6 | 0.00 | 0.00 | 0.00 | 92 | 1009.8 |
| 20260506203010 | 17 | 90 | 3.2 | 3.2 | 0.00 | 0.00 | 0.00 | 92 | 1010.8 |
| 20260506202810 | 17 | 90 | 1.6 | 1.6 | 0.00 | 0.00 | 0.00 | 92 | 1010.8 |
| 20260506202611 | 17 | 90 | 4.8 | 4.8 | 0.00 | 0.00 | 0.00 | 92 | 1010.8 |
| 20260506202358 | 17 | 90 | 3.2 | 3.2 | 0.00 | 0.00 | 0.00 | 92 | 1010.8 |
| 20260506202146 | 17 | 90 | 0.0 | 0.0 | 0.00 | 0.00 | 0.00 | 92 | 1010.8 |
| 20260506201935 | 17 | 90 | 1.6 | 1.6 | 0.00 | 0.00 | 0.00 | 92 | 1010.8 |
| 20260506201722 | 17 | 90 | 0.0 | 0.0 | 0.00 | 0.00 | 0.00 | 92 | 1010.8 |
| 20260506201510 | 17 | 90 | 1.6 | 1.6 | 0.00 | 0.00 | 0.00 | 92 | 1010.8 |
| 20260506201311 | 17 | 68 | 3.2 | 3.2 | 0.00 | 0.00 | 0.00 | 92 | 1010.8 |
| 20260506201058 | 17 | 22 | 1.6 | 1.6 | 0.00 | 0.00 | 0.00 | 92 | 1010.8 |
| 20260506200846 | 17 | 22 | 1.6 | 1.6 | 0.00 | 0.00 | 0.00 | 92 | 1010.8 |
| 20260506200635 | 17 | 22 | 0.0 | 0.0 | 0.00 | 0.00 | 0.00 | 92 | 1010.8 |
| 20260506200422 | 17 | 22 | 3.2 | 3.2 | 0.00 | 0.00 | 0.00 | 92 | 1010.8 |
| 20260506200222 | 17 | 22 | 3.2 | 3.2 | 0.00 | 0.00 | 0.00 | 92 | 1010.8 |
| 20260506200019 | 17 | 22 | 0.0 | 0.0 | 0.00 | 0.00 | 0.00 | 92 | 1010.8 |
| 20260506195758 | 17 | 22 | 0.0 | 0.0 | 0.00 | 0.00 | 0.00 | 92 | 1009.8 |
| 20260506195546 | 17 | 22 | 1.6 | 1.6 | 0.00 | 0.00 | 0.00 | 92 | 1009.8 |
| 20260506195335 | 17 | 22 | 3.2 | 3.2 | 0.00 | 0.00 | 0.00 | 92 | 1009.8 |
| 20260506195122 | 17 | 22 | 3.2 | 3.2 | 0.00 | 0.00 | 0.00 | 92 | 1009.8 |
| 20260506194910 | 17 | 22 | 1.6 | 1.6 | 0.00 | 0.00 | 0.00 | 91 | 1009.8 |
| 20260506194711 | 17 | 22 | 3.2 | 3.2 | 0.00 | 0.00 | 0.00 | 91 | 1009.8 |
| 20260506194458 | 17 | 22 | 4.8 | 4.8 | 0.00 | 0.00 | 0.00 | 91 | 1009.8 |
| 20260506194246 | 17 | 22 | 4.8 | 6.4 | 0.00 | 0.00 | 0.00 | 91 | 1009.8 |
| 20260506194035 | 16 | 22 | 3.2 | 3.2 | 0.00 | 0.00 | 0.00 | 91 | 1009.8 |
| 20260506193822 | 16 | 68 | 4.8 | 4.8 | 0.00 | 0.00 | 0.00 | 91 | 1009.8 |
| 20260506193610 | 16 | 45 | 8.0 | 8.0 | 0.00 | 0.00 | 0.00 | 91 | 1009.8 |
| 20260506193359 | 16 | 68 | 8.0 | 8.0 | 0.00 | 0.00 | 0.00 | 91 | 1009.8 |
| 20260506193158 | 16 | 68 | 8.0 | 8.0 | 0.00 | 0.00 | 0.00 | 91 | 1010.8 |
| 20260506192946 | 16 | 68 | 9.7 | 9.7 | 0.00 | 0.00 | 0.00 | 91 | 1010.8 |
| 20260506192735 | 16 | 45 | 6.4 | 6.4 | 0.00 | 0.00 | 0.00 | 91 | 1010.8 |
| 20260506192522 | 16 | 45 | 3.2 | 3.2 | 0.00 | 0.00 | 0.00 | 92 | 1010.8 |
| 20260506192310 | 16 | 45 | 3.2 | 3.2 | 0.00 | 0.00 | 0.00 | 92 | 1010.8 |
| 20260506192111 | 16 | 45 | 3.2 | 3.2 | 0.00 | 0.00 | 0.00 | 92 | 1010.8 |
| 20260506191910 | 16 | 22 | 4.8 | 4.8 | 0.00 | 0.00 | 0.00 | 92 | 1010.8 |
| 20260506191710 | 16 | 22 | 4.8 | 4.8 | 0.00 | 0.00 | 0.00 | 92 | 1010.8 |
| 20260506191459 | 16 | 22 | 3.2 | 3.2 | 0.00 | 0.00 | 0.00 | 91 | 1010.8 |
| 20260506191246 | 16 | 22 | 3.2 | 3.2 | 0.00 | 0.00 | 0.00 | 91 | 1010.8 |
| 20260506191034 | 16 | 22 | 3.2 | 3.2 | 0.00 | 0.00 | 0.00 | 91 | 1010.8 |
| 20260506190823 | 16 | 45 | 3.2 | 3.2 | 0.00 | 0.00 | 0.00 | 91 | 1010.8 |
| 20260506190622 | 16 | 45 | 3.2 | 3.2 | 0.00 | 0.00 | 0.00 | 91 | 1010.8 |
| 20260506190422 | 16 | 45 | 4.8 | 4.8 | 0.00 | 0.00 | 0.00 | 91 | 1010.8 |
| 20260506190211 | 16 | 45 | 3.2 | 3.2 | 0.00 | 0.00 | 0.00 | 91 | 1010.8 |
| 20260506190010 | 16 | 45 | 3.2 | 3.2 | 0.00 | 0.00 | 0.00 | 91 | 1010.8 |
| 20260506185810 | 16 | 45 | 3.2 | 3.2 | 0.00 | 0.00 | 0.00 | 91 | 1010.8 |
| 20260506185559 | 16 | 45 | 0.0 | 0.0 | 0.00 | 0.00 | 0.00 | 91 | 1010.8 |
| 20260506185358 | 16 | 45 | 3.2 | 3.2 | 0.00 | 0.00 | 0.00 | 91 | 1010.8 |
| 20260506185146 | 16 | 45 | 4.8 | 4.8 | 0.00 | 0.00 | 0.00 | 91 | 1010.8 |
| 20260506184935 | 16 | 45 | 4.8 | 4.8 | 0.00 | 0.00 | 0.00 | 91 | 1010.8 |
| 20260506184734 | 16 | 45 | 3.2 | 3.2 | 0.00 | 0.00 | 0.00 | 91 | 1010.8 |
| 20260506184534 | 16 | 158 | 3.2 | 3.2 | 0.00 | 0.00 | 0.00 | 90 | 1010.8 |
| 20260506184323 | 16 | 158 | 1.6 | 1.6 | 0.00 | 0.00 | 0.00 | 90 | 1010.8 |
| 20260506184122 | 16 | 158 | 0.0 | 0.0 | 0.00 | 0.00 | 0.00 | 90 | 1010.8 |
| 20260506183922 | 16 | 158 | 0.0 | 0.0 | 0.00 | 0.00 | 0.00 | 90 | 1010.8 |
| 20260506183711 | 16 | 158 | 0.0 | 0.0 | 0.00 | 0.00 | 0.00 | 90 | 1010.8 |
| 20260506183510 | 16 | 158 | 1.6 | 1.6 | 0.00 | 0.00 | 0.00 | 90 | 1010.8 |
| 20260506183310 | 16 | 158 | 0.0 | 0.0 | 0.00 | 0.00 | 0.00 | 90 | 1010.8 |
| 20260506183059 | 16 | 158 | 0.0 | 0.0 | 0.00 | 0.00 | 0.00 | 89 | 1010.8 |
| 20260506182858 | 17 | 158 | 0.0 | 0.0 | 0.00 | 0.00 | 0.00 | 89 | 1010.8 |
| 20260506182658 | 17 | 158 | 0.0 | 0.0 | 0.00 | 0.00 | 0.00 | 89 | 1010.8 |
| 20260506182447 | 17 | 158 | 0.0 | 0.0 | 0.00 | 0.00 | 0.00 | 89 | 1010.8 |
| 20260506182246 | 17 | 158 | 0.0 | 0.0 | 0.00 | 0.00 | 0.00 | 89 | 1010.8 |
| 20260506182046 | 17 | 158 | 0.0 | 0.0 | 0.00 | 0.00 | 0.00 | 89 | 1010.8 |
| 20260506181835 | 17 | 158 | 0.0 | 0.0 | 0.00 | 0.00 | 0.00 | 89 | 1010.8 |
| 20260506181634 | 17 | 158 | 0.0 | 0.0 | 0.00 | 0.00 | 0.00 | 89 | 1010.8 |
| 20260506181434 | 17 | 158 | 0.0 | 0.0 | 0.00 | 0.00 | 0.00 | 89 | 1010.8 |
| 20260506181222 | 17 | 158 | 0.0 | 0.0 | 0.00 | 0.00 | 0.00 | 89 | 1010.8 |
| 20260506181022 | 17 | 158 | 0.0 | 0.0 | 0.00 | 0.00 | 0.00 | 88 | 1010.8 |
| 20260506180822 | 17 | 158 | 0.0 | 0.0 | 0.00 | 0.00 | 0.00 | 88 | 1010.8 |
| 20260506180611 | 17 | 158 | 0.0 | 0.0 | 0.00 | 0.00 | 0.00 | 88 | 1010.8 |
| 20260506180410 | 17 | 158 | 0.0 | 0.0 | 0.00 | 0.00 | 0.00 | 88 | 1010.8 |
| 20260506180210 | 17 | 158 | 1.6 | 1.6 | 0.00 | 0.00 | 0.00 | 88 | 1010.8 |
| 20260506175958 | 17 | 158 | 0.0 | 0.0 | 0.00 | 0.00 | 0.00 | 87 | 1010.8 |
| 20260506175758 | 17 | 158 | 0.0 | 0.0 | 0.00 | 0.00 | 0.00 | 87 | 1010.8 |
| 20260506175558 | 17 | 158 | 0.0 | 0.0 | 0.00 | 0.00 | 0.00 | 87 | 1010.8 |
| 20260506175347 | 17 | 158 | 0.0 | 0.0 | 0.00 | 0.00 | 0.00 | 87 | 1010.8 |
| 20260506175146 | 17 | 158 | 0.0 | 0.0 | 0.00 | 0.00 | 0.00 | 87 | 1010.8 |
| 20260506174946 | 18 | 158 | 0.0 | 0.0 | 0.00 | 0.00 | 0.00 | 87 | 1010.8 |
| 20260506174735 | 18 | 158 | 1.6 | 1.6 | 0.00 | 0.00 | 0.00 | 87 | 1010.8 |
| 20260506174534 | 18 | 158 | 3.2 | 3.2 | 0.00 | 0.00 | 0.00 | 87 | 1010.8 |
| 20260506174334 | 18 | 158 | 3.2 | 3.2 | 0.00 | 0.00 | 0.00 | 86 | 1010.8 |
| 20260506174123 | 18 | 135 | 3.2 | 3.2 | 0.00 | 0.00 | 0.00 | 86 | 1010.8 |
| 20260506173922 | 18 | 135 | 3.2 | 3.2 | 0.00 | 0.00 | 0.00 | 86 | 1010.8 |
| 20260506173722 | 18 | 158 | 3.2 | 3.2 | 0.00 | 0.00 | 0.00 | 86 | 1010.8 |
| 20260506173511 | 18 | 158 | 4.8 | 4.8 | 0.00 | 0.00 | 0.00 | 86 | 1010.8 |
| 20260506173310 | 18 | 158 | 3.2 | 3.2 | 0.00 | 0.00 | 0.00 | 85 | 1010.8 |
| 20260506173110 | 18 | 158 | 3.2 | 3.2 | 0.00 | 0.00 | 0.00 | 85 | 1010.8 |
| 20260506172859 | 18 | 158 | 4.8 | 4.8 | 0.00 | 0.00 | 0.00 | 85 | 1010.8 |
| 20260506172658 | 18 | 180 | 3.2 | 3.2 | 0.00 | 0.00 | 0.00 | 85 | 1010.8 |
| 20260506172458 | 18 | 180 | 4.8 | 4.8 | 0.00 | 0.00 | 0.00 | 85 | 1010.8 |
| 20260506172247 | 18 | 158 | 3.2 | 3.2 | 0.00 | 0.00 | 0.00 | 84 | 1010.8 |
| 20260506172046 | 18 | 158 | 4.8 | 6.4 | 0.00 | 0.00 | 0.00 | 84 | 1010.8 |
| 20260506171846 | 18 | 158 | 4.8 | 4.8 | 0.00 | 0.00 | 0.00 | 84 | 1010.8 |
| 20260506171635 | 18 | 158 | 4.8 | 4.8 | 0.00 | 0.00 | 0.00 | 84 | 1010.8 |
| 20260506171434 | 18 | 158 | 8.0 | 8.0 | 0.00 | 0.00 | 0.00 | 83 | 1010.8 |
| 20260506171234 | 18 | 158 | 8.0 | 8.0 | 0.00 | 0.00 | 0.00 | 83 | 1010.8 |
| 20260506171023 | 18 | 158 | 4.8 | 6.4 | 0.00 | 0.00 | 0.00 | 83 | 1010.8 |
| 20260506170822 | 18 | 158 | 3.2 | 3.2 | 0.00 | 0.00 | 0.00 | 83 | 1010.8 |
| 20260506170622 | 18 | 135 | 6.4 | 6.4 | 0.00 | 0.00 | 0.00 | 83 | 1010.8 |
| 20260506170410 | 18 | 135 | 8.0 | 8.0 | 0.00 | 0.00 | 0.00 | 83 | 1010.8 |
| 20260506170210 | 18 | 158 | 4.8 | 4.8 | 0.00 | 0.00 | 0.00 | 83 | 1010.8 |
| 20260506170010 | 18 | 135 | 4.8 | 6.4 | 0.00 | 0.00 | 0.00 | 83 | 1010.8 |
| 20260506165758 | 18 | 135 | 3.2 | 3.2 | 0.00 | 0.00 | 0.00 | 82 | 1010.8 |
| 20260506165558 | 19 | 135 | 6.4 | 6.4 | 0.00 | 0.00 | 0.00 | 82 | 1010.8 |
| 20260506165358 | 19 | 112 | 3.2 | 3.2 | 0.00 | 0.00 | 0.00 | 82 | 1010.8 |
| 20260506165146 | 19 | 135 | 9.7 | 9.7 | 0.00 | 0.00 | 0.00 | 82 | 1010.8 |
| 20260506164946 | 19 | 158 | 6.4 | 8.0 | 0.00 | 0.00 | 0.00 | 81 | 1010.8 |
| 20260506164746 | 19 | 112 | 4.8 | 6.4 | 0.00 | 0.00 | 0.00 | 81 | 1010.8 |
| 20260506164535 | 19 | 158 | 8.0 | 9.7 | 0.00 | 0.00 | 0.00 | 81 | 1010.8 |
| 20260506164334 | 19 | 112 | 3.2 | 3.2 | 0.00 | 0.00 | 0.00 | 81 | 1010.8 |
| 20260506164134 | 19 | 158 | 4.8 | 4.8 | 0.00 | 0.00 | 0.00 | 81 | 1010.8 |
| 20260506163922 | 19 | 112 | 8.0 | 8.0 | 0.00 | 0.00 | 0.00 | 81 | 1010.8 |
| 20260506163722 | 19 | 135 | 4.8 | 6.4 | 0.00 | 0.00 | 0.00 | 80 | 1010.8 |
| 20260506163522 | 19 | 135 | 8.0 | 9.7 | 0.00 | 0.00 | 0.00 | 80 | 1010.8 |
| 20260506163311 | 19 | 135 | 8.0 | 8.0 | 0.00 | 0.00 | 0.00 | 80 | 1010.8 |
| 20260506163110 | 19 | 135 | 9.7 | 9.7 | 0.00 | 0.00 | 0.00 | 79 | 1010.8 |
| 20260506162910 | 19 | 135 | 8.0 | 8.0 | 0.00 | 0.00 | 0.00 | 78 | 1010.8 |
| 20260506162658 | 19 | 158 | 8.0 | 8.0 | 0.00 | 0.00 | 0.00 | 78 | 1010.8 |
| 20260506162458 | 19 | 135 | 8.0 | 8.0 | 0.00 | 0.00 | 0.00 | 79 | 1010.8 |
| 20260506162258 | 19 | 158 | 9.7 | 11.3 | 0.00 | 0.00 | 0.00 | 79 | 1010.8 |
| 20260506162046 | 19 | 135 | 9.7 | 9.7 | 0.00 | 0.00 | 0.00 | 79 | 1010.8 |
| 20260506161846 | 19 | 135 | 9.7 | 9.7 | 0.00 | 0.00 | 0.00 | 79 | 1010.8 |
| 20260506161646 | 19 | 158 | 6.4 | 8.0 | 0.00 | 0.00 | 0.00 | 79 | 1010.8 |
| 20260506161435 | 19 | 135 | 8.0 | 9.7 | 0.00 | 0.00 | 0.00 | 79 | 1010.8 |
| 20260506161234 | 19 | 135 | 8.0 | 8.0 | 0.00 | 0.00 | 0.00 | 79 | 1010.8 |
| 20260506161034 | 20 | 112 | 9.7 | 9.7 | 0.00 | 0.00 | 0.00 | 79 | 1010.8 |
| 20260506160823 | 20 | 135 | 8.0 | 8.0 | 0.00 | 0.00 | 0.00 | 79 | 1010.8 |
| 20260506160622 | 20 | 112 | 8.0 | 8.0 | 0.00 | 0.00 | 0.00 | 78 | 1010.8 |
| 20260506160422 | 20 | 158 | 4.8 | 6.4 | 0.00 | 0.00 | 0.00 | 78 | 1010.8 |
| 20260506160211 | 20 | 112 | 11.3 | 12.9 | 0.00 | 0.00 | 0.00 | 77 | 1010.8 |
| 20260506160010 | 20 | 135 | 8.0 | 9.7 | 0.00 | 0.00 | 0.00 | 77 | 1010.8 |
| 20260506155810 | 20 | 112 | 8.0 | 8.0 | 0.00 | 0.00 | 0.00 | 77 | 1010.8 |
| 20260506155558 | 20 | 158 | 12.9 | 14.5 | 0.00 | 0.00 | 0.00 | 76 | 1010.8 |
| 20260506155358 | 20 | 158 | 9.7 | 9.7 | 0.00 | 0.00 | 0.00 | 77 | 1010.8 |
| 20260506155158 | 20 | 135 | 11.3 | 11.3 | 0.00 | 0.00 | 0.00 | 75 | 1010.8 |
| 20260506154946 | 20 | 135 | 9.7 | 9.7 | 0.00 | 0.00 | 0.00 | 77 | 1010.8 |
| 20260506154746 | 20 | 180 | 6.4 | 8.0 | 0.00 | 0.00 | 0.00 | 76 | 1010.8 |
| 20260506154546 | 20 | 135 | 8.0 | 9.7 | 0.00 | 0.00 | 0.00 | 77 | 1010.8 |
| 20260506154334 | 20 | 135 | 6.4 | 8.0 | 0.00 | 0.00 | 0.00 | 76 | 1010.8 |
| 20260506154134 | 20 | 135 | 9.7 | 9.7 | 0.00 | 0.00 | 0.00 | 76 | 1010.8 |
| 20260506153934 | 20 | 135 | 9.7 | 9.7 | 0.00 | 0.00 | 0.00 | 76 | 1010.8 |
| 20260506153723 | 20 | 158 | 9.7 | 9.7 | 0.00 | 0.00 | 0.00 | 75 | 1010.8 |
| 20260506153522 | 20 | 202 | 8.0 | 8.0 | 0.00 | 0.00 | 0.00 | 76 | 1010.8 |
| 20260506153322 | 20 | 135 | 8.0 | 8.0 | 0.00 | 0.00 | 0.00 | 75 | 1010.8 |
| 20260506153110 | 20 | 180 | 8.0 | 8.0 | 0.00 | 0.00 | 0.00 | 77 | 1010.8 |
| 20260506152910 | 20 | 180 | 9.7 | 9.7 | 0.00 | 0.00 | 0.00 | 76 | 1010.8 |
| 20260506152710 | 20 | 135 | 9.7 | 9.7 | 0.00 | 0.00 | 0.00 | 75 | 1010.8 |
| 20260506152459 | 20 | 158 | 8.0 | 9.7 | 0.00 | 0.00 | 0.00 | 76 | 1010.8 |
| 20260506152258 | 20 | 158 | 9.7 | 9.7 | 0.00 | 0.00 | 0.00 | 76 | 1010.8 |
| 20260506152058 | 20 | 158 | 11.3 | 12.9 | 0.00 | 0.00 | 0.00 | 76 | 1010.8 |
| 20260506151846 | 20 | 158 | 9.7 | 9.7 | 0.00 | 0.00 | 0.00 | 77 | 1010.8 |
| 20260506151646 | 20 | 158 | 12.9 | 12.9 | 0.00 | 0.00 | 0.00 | 75 | 1010.8 |
| 20260506151446 | 20 | 158 | 6.4 | 6.4 | 0.00 | 0.00 | 0.00 | 76 | 1010.8 |
| 20260506151234 | 20 | 158 | 9.7 | 9.7 | 0.00 | 0.00 | 0.00 | 77 | 1010.8 |
| 20260506151034 | 20 | 135 | 11.3 | 11.3 | 0.00 | 0.00 | 0.00 | 75 | 1010.8 |
| 20260506150834 | 20 | 158 | 12.9 | 14.5 | 0.00 | 0.00 | 0.00 | 75 | 1010.8 |
| 20260506150622 | 20 | 135 | 8.0 | 8.0 | 0.00 | 0.00 | 0.00 | 76 | 1010.8 |
| 20260506150422 | 21 | 135 | 12.9 | 12.9 | 0.00 | 0.00 | 0.00 | 75 | 1010.8 |
| 20260506150222 | 21 | 135 | 11.3 | 12.9 | 0.00 | 0.00 | 0.00 | 75 | 1010.8 |
| 20260506150011 | 21 | 135 | 12.9 | 12.9 | 0.00 | 0.00 | 0.00 | 75 | 1010.8 |
| 20260506145810 | 21 | 158 | 12.9 | 12.9 | 0.00 | 0.00 | 0.00 | 74 | 1010.8 |
| 20260506145610 | 21 | 158 | 8.0 | 8.0 | 0.00 | 0.00 | 0.00 | 74 | 1010.8 |
| 20260506145359 | 21 | 202 | 11.3 | 11.3 | 0.00 | 0.00 | 0.00 | 72 | 1010.8 |
| 20260506145158 | 21 | 135 | 8.0 | 8.0 | 0.00 | 0.00 | 0.00 | 74 | 1010.8 |
| 20260506144958 | 21 | 135 | 14.5 | 17.7 | 0.00 | 0.00 | 0.00 | 72 | 1010.8 |
| 20260506144746 | 21 | 158 | 8.0 | 8.0 | 0.00 | 0.00 | 0.00 | 72 | 1010.8 |
| 20260506144546 | 21 | 135 | 6.4 | 8.0 | 0.00 | 0.00 | 0.00 | 73 | 1011.8 |
| 20260506144346 | 21 | 225 | 8.0 | 8.0 | 0.00 | 0.00 | 0.00 | 70 | 1011.8 |
| 20260506144135 | 21 | 112 | 9.7 | 9.7 | 0.00 | 0.00 | 0.00 | 73 | 1011.8 |
| 20260506143934 | 21 | 135 | 11.3 | 12.9 | 0.00 | 0.00 | 0.00 | 73 | 1011.8 |
| 20260506143734 | 21 | 112 | 9.7 | 9.7 | 0.00 | 0.00 | 0.00 | 71 | 1011.8 |
| 20260506143522 | 21 | 158 | 3.2 | 3.2 | 0.00 | 0.00 | 0.00 | 69 | 1011.8 |
| 20260506143322 | 21 | 202 | 8.0 | 8.0 | 0.00 | 0.00 | 0.00 | 70 | 1011.8 |
| 20260506143122 | 21 | 180 | 9.7 | 9.7 | 0.00 | 0.00 | 0.00 | 73 | 1011.8 |
| 20260506142910 | 21 | 158 | 11.3 | 12.9 | 0.00 | 0.00 | 0.00 | 71 | 1011.8 |
| 20260506142710 | 21 | 202 | 9.7 | 9.7 | 0.00 | 0.00 | 0.00 | 72 | 1011.8 |
| 20260506142510 | 21 | 248 | 12.9 | 12.9 | 0.00 | 0.00 | 0.00 | 71 | 1011.8 |
| 20260506142258 | 21 | 158 | 9.7 | 11.3 | 0.00 | 0.00 | 0.00 | 71 | 1011.8 |
| 20260506142058 | 21 | 135 | 9.7 | 9.7 | 0.00 | 0.00 | 0.00 | 72 | 1011.8 |
| 20260506141858 | 21 | 135 | 9.7 | 9.7 | 0.00 | 0.00 | 0.00 | 72 | 1011.8 |
| 20260506141646 | 21 | 158 | 8.0 | 8.0 | 0.00 | 0.00 | 0.00 | 73 | 1011.8 |
| 20260506141446 | 21 | 158 | 6.4 | 8.0 | 0.00 | 0.00 | 0.00 | 72 | 1010.8 |
| 20260506141246 | 21 | 158 | 9.7 | 9.7 | 0.00 | 0.00 | 0.00 | 71 | 1010.8 |
| 20260506141034 | 21 | 158 | 6.4 | 6.4 | 0.00 | 0.00 | 0.00 | 71 | 1010.8 |
| 20260506140834 | 21 | 180 | 8.0 | 8.0 | 0.00 | 0.00 | 0.00 | 72 | 1010.8 |
| 20260506140634 | 21 | 158 | 12.9 | 12.9 | 0.00 | 0.00 | 0.00 | 70 | 1010.8 |
| 20260506140423 | 21 | 135 | 6.4 | 8.0 | 0.00 | 0.00 | 0.00 | 70 | 1010.8 |
| 20260506140222 | 21 | 180 | 11.3 | 11.3 | 0.00 | 0.00 | 0.00 | 70 | 1010.8 |
| 20260506140022 | 21 | 158 | 12.9 | 12.9 | 0.00 | 0.00 | 0.00 | 70 | 1010.8 |
| 20260506135810 | 21 | 202 | 12.9 | 14.5 | 0.00 | 0.00 | 0.00 | 70 | 1010.8 |
| 20260506135610 | 21 | 158 | 12.9 | 14.5 | 0.00 | 0.00 | 0.00 | 72 | 1010.8 |
| 20260506135410 | 21 | 158 | 8.0 | 8.0 | 0.00 | 0.00 | 0.00 | 71 | 1010.8 |
| 20260506135158 | 21 | 135 | 14.5 | 16.1 | 0.00 | 0.00 | 0.00 | 73 | 1010.8 |
| 20260506134958 | 21 | 225 | 8.0 | 8.0 | 0.00 | 0.00 | 0.00 | 73 | 1010.8 |
| 20260506134758 | 21 | 180 | 9.7 | 9.7 | 0.00 | 0.00 | 0.00 | 73 | 1010.8 |
| 20260506134546 | 21 | 158 | 9.7 | 9.7 | 0.00 | 0.00 | 0.00 | 74 | 1010.8 |
| 20260506134346 | 21 | 180 | 14.5 | 16.1 | 0.00 | 0.00 | 0.00 | 72 | 1011.8 |
| 20260506134146 | 21 | 135 | 12.9 | 14.5 | 0.00 | 0.00 | 0.00 | 73 | 1011.8 |
| 20260506133934 | 21 | 112 | 12.9 | 14.5 | 0.00 | 0.00 | 0.00 | 72 | 1011.8 |
| 20260506133734 | 21 | 135 | 9.7 | 11.3 | 0.00 | 0.00 | 0.00 | 74 | 1011.8 |
| 20260506133534 | 21 | 135 | 11.3 | 11.3 | 0.00 | 0.00 | 0.00 | 72 | 1011.8 |
| 20260506133322 | 21 | 135 | 14.5 | 14.5 | 0.00 | 0.00 | 0.00 | 74 | 1011.8 |
| 20260506133122 | 21 | 112 | 8.0 | 8.0 | 0.00 | 0.00 | 0.00 | 73 | 1011.8 |
| 20260506132922 | 21 | 135 | 14.5 | 16.1 | 0.00 | 0.00 | 0.00 | 74 | 1011.8 |
| 20260506132710 | 21 | 135 | 8.0 | 8.0 | 0.00 | 0.00 | 0.00 | 73 | 1011.8 |
| 20260506132510 | 21 | 135 | 9.7 | 9.7 | 0.00 | 0.00 | 0.00 | 74 | 1011.8 |
| 20260506132310 | 21 | 158 | 12.9 | 12.9 | 0.00 | 0.00 | 0.00 | 74 | 1011.8 |
| 20260506132058 | 21 | 112 | 12.9 | 14.5 | 0.00 | 0.00 | 0.00 | 73 | 1011.8 |
| 20260506131858 | 21 | 112 | 9.7 | 9.7 | 0.00 | 0.00 | 0.00 | 72 | 1011.8 |
| 20260506131658 | 21 | 158 | 11.3 | 12.9 | 0.00 | 0.00 | 0.00 | 72 | 1011.8 |
| 20260506131446 | 21 | 90 | 6.4 | 8.0 | 0.00 | 0.00 | 0.00 | 73 | 1011.8 |
| 20260506131246 | 21 | 135 | 16.1 | 16.1 | 0.00 | 0.00 | 0.00 | 73 | 1011.8 |
| 20260506131046 | 21 | 158 | 9.7 | 9.7 | 0.00 | 0.00 | 0.00 | 72 | 1011.8 |
| 20260506130834 | 21 | 180 | 8.0 | 8.0 | 0.00 | 0.00 | 0.00 | 72 | 1011.8 |
| 20260506130634 | 21 | 135 | 11.3 | 12.9 | 0.00 | 0.00 | 0.00 | 71 | 1011.8 |
| 20260506130434 | 21 | 158 | 12.9 | 12.9 | 0.00 | 0.00 | 0.00 | 72 | 1011.8 |
| 20260506130222 | 21 | 135 | 12.9 | 14.5 | 0.00 | 0.00 | 0.00 | 73 | 1011.8 |
| 20260506130022 | 21 | 135 | 11.3 | 11.3 | 0.00 | 0.00 | 0.00 | 71 | 1011.8 |
| 20260506125822 | 21 | 158 | 11.3 | 12.9 | 0.00 | 0.00 | 0.00 | 72 | 1011.8 |
| 20260506125610 | 21 | 158 | 14.5 | 16.1 | 0.00 | 0.00 | 0.00 | 71 | 1011.8 |
| 20260506125410 | 21 | 112 | 12.9 | 14.5 | 0.00 | 0.00 | 0.00 | 72 | 1011.8 |
| 20260506125210 | 21 | 158 | 14.5 | 16.1 | 0.00 | 0.00 | 0.00 | 73 | 1011.8 |
| 20260506124958 | 21 | 112 | 14.5 | 14.5 | 0.00 | 0.00 | 0.00 | 72 | 1011.8 |
| 20260506124758 | 21 | 158 | 8.0 | 9.7 | 0.00 | 0.00 | 0.00 | 71 | 1011.8 |
| 20260506124558 | 21 | 158 | 9.7 | 11.3 | 0.00 | 0.00 | 0.00 | 72 | 1011.8 |
| 20260506124346 | 21 | 180 | 12.9 | 12.9 | 0.00 | 0.00 | 0.00 | 71 | 1011.8 |
| 20260506124146 | 21 | 225 | 8.0 | 8.0 | 0.00 | 0.00 | 0.00 | 71 | 1011.8 |
| 20260506123946 | 21 | 158 | 8.0 | 8.0 | 0.00 | 0.00 | 0.00 | 73 | 1011.8 |
| 20260506123734 | 21 | 158 | 14.5 | 16.1 | 0.00 | 0.00 | 0.00 | 70 | 1011.8 |
| 20260506123534 | 21 | 135 | 12.9 | 14.5 | 0.00 | 0.00 | 0.00 | 70 | 1011.8 |
| 20260506123334 | 21 | 112 | 12.9 | 12.9 | 0.00 | 0.00 | 0.00 | 70 | 1011.8 |
| 20260506123122 | 21 | 112 | 9.7 | 9.7 | 0.00 | 0.00 | 0.00 | 69 | 1011.8 |
| 20260506122922 | 21 | 180 | 12.9 | 14.5 | 0.00 | 0.00 | 0.00 | 69 | 1011.8 |
| 20260506122722 | 21 | 158 | 12.9 | 14.5 | 0.00 | 0.00 | 0.00 | 67 | 1011.8 |
| 20260506122510 | 21 | 158 | 4.8 | 6.4 | 0.00 | 0.00 | 0.00 | 67 | 1011.8 |
| 20260506122310 | 21 | 158 | 12.9 | 12.9 | 0.00 | 0.00 | 0.00 | 69 | 1011.8 |
| 20260506122110 | 21 | 158 | 6.4 | 6.4 | 0.00 | 0.00 | 0.00 | 67 | 1011.8 |
| 20260506121858 | 21 | 180 | 12.9 | 14.5 | 0.00 | 0.00 | 0.00 | 65 | 1011.8 |
| 20260506121658 | 22 | 158 | 9.7 | 9.7 | 0.00 | 0.00 | 0.00 | 66 | 1011.8 |
| 20260506121458 | 22 | 202 | 14.5 | 16.1 | 0.00 | 0.00 | 0.00 | 67 | 1011.8 |
| 20260506121246 | 22 | 158 | 12.9 | 14.5 | 0.00 | 0.00 | 0.00 | 66 | 1011.8 |
| 20260506121046 | 22 | 180 | 11.3 | 11.3 | 0.00 | 0.00 | 0.00 | 65 | 1011.8 |
| 20260506120846 | 22 | 202 | 11.3 | 12.9 | 0.00 | 0.00 | 0.00 | 65 | 1011.8 |
| 20260506120634 | 22 | 202 | 12.9 | 14.5 | 0.00 | 0.00 | 0.00 | 68 | 1011.8 |
| 20260506120434 | 21 | 202 | 14.5 | 16.1 | 0.00 | 0.00 | 0.00 | 68 | 1011.8 |
| 20260506120234 | 21 | 158 | 11.3 | 12.9 | 0.00 | 0.00 | 0.00 | 67 | 1011.8 |
| 20260506120022 | 21 | 180 | 8.0 | 8.0 | 0.00 | 0.00 | 0.00 | 68 | 1011.8 |
| 20260506115822 | 21 | 135 | 14.5 | 16.1 | 0.00 | 0.00 | 0.00 | 66 | 1011.8 |
| 20260506115622 | 21 | 202 | 8.0 | 8.0 | 0.00 | 0.00 | 0.00 | 70 | 1011.8 |
| 20260506115410 | 21 | 158 | 12.9 | 12.9 | 0.00 | 0.00 | 0.00 | 69 | 1011.8 |
| 20260506115209 | 21 | 135 | 12.9 | 12.9 | 0.00 | 0.00 | 0.00 | 68 | 1011.8 |
| 20260506115010 | 21 | 158 | 11.3 | 11.3 | 0.00 | 0.00 | 0.00 | 69 | 1011.8 |
| 20260506114758 | 21 | 180 | 16.1 | 19.3 | 0.00 | 0.00 | 0.00 | 67 | 1011.8 |
| 20260506114558 | 21 | 180 | 12.9 | 16.1 | 0.00 | 0.00 | 0.00 | 68 | 1012.9 |
| 20260506114358 | 21 | 158 | 16.1 | 17.7 | 0.00 | 0.00 | 0.00 | 67 | 1012.9 |
| 20260506114146 | 21 | 135 | 14.5 | 16.1 | 0.00 | 0.00 | 0.00 | 68 | 1012.9 |
| 20260506113946 | 21 | 135 | 17.7 | 20.9 | 0.00 | 0.00 | 0.00 | 67 | 1012.9 |
| 20260506113746 | 21 | 158 | 11.3 | 12.9 | 0.00 | 0.00 | 0.00 | 70 | 1012.9 |
| 20260506113534 | 21 | 158 | 14.5 | 16.1 | 0.00 | 0.00 | 0.00 | 68 | 1012.9 |
| 20260506113334 | 21 | 180 | 12.9 | 14.5 | 0.00 | 0.00 | 0.00 | 69 | 1011.8 |
| 20260506113134 | 21 | 158 | 12.9 | 14.5 | 0.00 | 0.00 | 0.00 | 69 | 1011.8 |
| 20260506112922 | 21 | 158 | 14.5 | 16.1 | 0.00 | 0.00 | 0.00 | 69 | 1011.8 |
| 20260506112722 | 21 | 202 | 9.7 | 9.7 | 0.00 | 0.00 | 0.00 | 67 | 1011.8 |
| 20260506112522 | 21 | 158 | 12.9 | 14.5 | 0.00 | 0.00 | 0.00 | 68 | 1011.8 |
| 20260506112315 | 21 | 202 | 11.3 | 11.3 | 0.00 | 0.00 | 0.00 | 69 | 1011.8 |
| 20260506112110 | 21 | 158 | 14.5 | 16.1 | 0.00 | 0.00 | 0.00 | 68 | 1011.8 |
| 20260506111926 | 21 | 158 | 9.7 | 9.7 | 0.00 | 0.00 | 0.00 | 71 | 1011.8 |
| 20260506111658 | 21 | 158 | 11.3 | 12.9 | 0.00 | 0.00 | 0.00 | 69 | 1011.8 |
| 20260506111457 | 21 | 158 | 12.9 | 12.9 | 0.00 | 0.00 | 0.00 | 69 | 1011.8 |
| 20260506111258 | 21 | 158 | 11.3 | 11.3 | 0.00 | 0.00 | 0.00 | 70 | 1011.8 |
| 20260506111046 | 21 | 180 | 8.0 | 8.0 | 0.00 | 0.00 | 0.00 | 71 | 1011.8 |
| 20260506110845 | 21 | 202 | 9.7 | 9.7 | 0.00 | 0.00 | 0.00 | 72 | 1011.8 |
| 20260506110646 | 21 | 202 | 9.7 | 9.7 | 0.00 | 0.00 | 0.00 | 71 | 1011.8 |
| 20260506110434 | 21 | 158 | 14.5 | 16.1 | 0.00 | 0.00 | 0.00 | 70 | 1011.8 |
| 20260506110233 | 21 | 135 | 11.3 | 12.9 | 0.00 | 0.00 | 0.00 | 69 | 1012.9 |
| 20260506110034 | 21 | 202 | 9.7 | 11.3 | 0.00 | 0.00 | 0.00 | 67 | 1012.9 |
| 20260506105822 | 21 | 180 | 14.5 | 16.1 | 0.00 | 0.00 | 0.00 | 71 | 1012.9 |
| 20260506105622 | 21 | 135 | 12.9 | 14.5 | 0.00 | 0.00 | 0.00 | 70 | 1012.9 |
| 20260506105422 | 21 | 135 | 11.3 | 12.9 | 0.00 | 0.00 | 0.00 | 70 | 1012.9 |
| 20260506105210 | 21 | 112 | 9.7 | 9.7 | 0.00 | 0.00 | 0.00 | 71 | 1012.9 |
| 20260506105010 | 21 | 202 | 14.5 | 16.1 | 0.00 | 0.00 | 0.00 | 71 | 1012.9 |
| 20260506104810 | 21 | 135 | 12.9 | 12.9 | 0.00 | 0.00 | 0.00 | 70 | 1012.9 |
| 20260506104558 | 21 | 158 | 16.1 | 16.1 | 0.00 | 0.00 | 0.00 | 70 | 1012.9 |
| 20260506104358 | 21 | 158 | 11.3 | 11.3 | 0.00 | 0.00 | 0.00 | 73 | 1012.9 |
| 20260506104157 | 21 | 158 | 12.9 | 14.5 | 0.00 | 0.00 | 0.00 | 71 | 1012.9 |
| 20260506103946 | 21 | 180 | 9.7 | 9.7 | 0.00 | 0.00 | 0.00 | 73 | 1012.9 |
| 20260506103745 | 20 | 112 | 12.9 | 14.5 | 0.00 | 0.00 | 0.00 | 72 | 1012.9 |